Flag for Cyprus Weather past 2 weeks in Larnaca, Cyprus

Now
52 °F

Clear.


Feels Like: 49 °F
Forecast: 48 / 69 °F
Wind: 9 mph from North

Location: Larnaca Airport

Current Time: Mar 5, 2015 at 11:23:48 PM

Latest Report: Mar 5, 2015 at 11:00 PM


Visibility: 10 mi

Pressure: 30.21 "Hg

Humidity: 62%

Dew point: 39 °F

Location of LarnacaLocation

Historic Weather in Larnaca — Graph

°F

Larnaca temperature yesterday

Maximum temperature yesterday: 70 °F (at 11:30 AM)
Minimum temperature yesterday: 48 °F (at 2:30 AM)
Average temperature yesterday: 58 °F

Past Weeks' High & Low Weather Summary

 TemperatureHumidityPressure
High70 °F (Feb 27, 1:30 PM)100% (Feb 25, 7:00 PM)30.24 "Hg (Feb 25, 7:00 PM)
Low34 °F (Feb 19, 9:00 PM)25% (Feb 21, 1:30 PM)29.68 "Hg (Feb 20, 6:00 AM)
Average55 °F71%30.00 "Hg
* Reported Feb 18 10:00 PM — Mar 5 10:00 PM, Larnaca, Weather by CustomWeather, © 2015

Note: Actual official high and low records may vary slightly from our data, if they occured in-between our weather recording intervals... More about our weather records

Advertising

Larnaca weather history for previous 24 hours

 ConditionsComfort  
Time TempWeatherWind HumidityBarometerVisibility
10:00 PM
Thu, Mar 5
52 °FClear.8 mph67%30.24 "Hg10 mi
9:30 PM52 °FClear.7 mph67%30.21 "Hg10 mi
9:00 PM52 °FClear.9 mph67%30.21 "Hg10 mi
8:30 PM52 °FClear.7 mph67%30.21 "Hg10 mi
8:00 PM54 °FPassing clouds.12 mph63%30.21 "HgN/A
7:30 PM57 °FClear.8 mph59%30.21 "Hg10 mi
7:00 PM59 °FClear.12 mph59%30.21 "Hg10 mi
6:30 PM61 °FClear.15 mph52%30.18 "Hg10 mi
6:00 PM61 °FClear.15 mph52%30.18 "Hg10 mi
5:30 PM61 °FSunny.15 mph48%30.18 "Hg10 mi
5:00 PM63 °FPassing clouds.15 mph42%30.18 "HgN/A
4:30 PM64 °FPassing clouds.15 mph43%30.18 "HgN/A
4:00 PM64 °FPassing clouds.17 mph40%30.18 "HgN/A
3:30 PM64 °FPassing clouds.16 mph43%30.18 "HgN/A
3:00 PM66 °FPassing clouds.16 mph40%30.18 "HgN/A
2:30 PM66 °FPassing clouds.15 mph40%30.18 "HgN/A
2:00 PM66 °FPassing clouds.15 mph37%30.18 "HgN/A
1:30 PM66 °FPassing clouds.15 mph37%30.18 "HgN/A
1:00 PM66 °FPassing clouds.14 mph40%30.18 "HgN/A
12:30 PM66 °FPassing clouds.12 mph40%30.18 "HgN/A
12:00 PM66 °FPassing clouds.13 mph37%30.18 "HgN/A
11:30 AM64 °FPassing clouds.10 mph40%30.21 "HgN/A
11:00 AM64 °FPassing clouds.12 mph37%30.21 "HgN/A
10:30 AM63 °FPassing clouds.12 mph42%30.21 "HgN/A
10:00 AM63 °FPassing clouds.14 mph49%30.18 "HgN/A
9:30 AM61 °FPassing clouds.16 mph48%30.18 "HgN/A
9:00 AM61 °FPassing clouds.15 mph48%30.18 "HgN/A
8:30 AM61 °FSunny.12 mph52%30.18 "Hg10 mi
8:00 AM57 °FPassing clouds.8 mph63%30.18 "HgN/A
7:30 AM52 °FSunny.5 mph72%30.18 "Hg10 mi
7:00 AM50 °FSunny.6 mph71%30.15 "Hg10 mi
6:30 AM48 °FPassing clouds.6 mph71%30.15 "HgN/A
6:00 AM46 °FPassing clouds.7 mph76%30.15 "HgN/A
5:30 AM45 °FPassing clouds.8 mph81%30.15 "HgN/A
5:00 AM45 °FClear.7 mph81%30.12 "Hg10 mi
4:00 AM46 °FClear.6 mph76%30.12 "Hg10 mi
3:30 AM46 °FClear.7 mph82%30.12 "Hg10 mi
3:00 AM46 °FClear.6 mph82%30.12 "Hg10 mi
2:30 AM46 °FClear.6 mph82%30.12 "Hg10 mi
2:00 AM50 °FPassing clouds.6 mph67%30.12 "HgN/A
1:30 AM52 °FPassing clouds.7 mph67%30.12 "HgN/A
1:00 AM52 °FPassing clouds.5 mph67%30.12 "HgN/A
12:30 AM54 °FPassing clouds.6 mph67%30.12 "HgN/A
12:00 AM54 °FPassing clouds.3 mph58%30.12 "HgN/A
11:30 PM
Wed, Mar 4
54 °FPassing clouds.5 mph58%30.12 "HgN/A
11:00 PM52 °FPassing clouds.3 mph72%30.12 "HgN/A
Weather by CustomWeather, © 2015

See weather overviewHow to use our weather pages